Location: St. Louis
(38.6270°N, 90.1994°W)
Time: 07:51:40
(UTC-05:00)

ISS - Pass Details

Date: 25 January 2014
Orbit: 402 x 403 km, 51.6° (Epoch: 28 June)

Event Time Altitude Azimuth Distance (km) Brightness Sun altitude
Exits shadow 05:13:56 27° 29° (NNE) 868 -1.5 -23.0°
Drops below altitude 10° 05:16:54 10° 89° (E) 1,533 0.7 -22.4°
Sets 05:19:14 0° 102° (ESE) 2,404 2.1 -22.0°
